This demonstration page uses our WeatherBlox Daily Observations layout. Learn more.

Left ArrowRight Arrow

Hourly Observations for September 23, 2018

Temp ( °F °C ) Dew Point ( °F °C ) Humidity (%) Winds ( mph kmh ) Pressure ( in mb ) Visibility ( mi km ) Precip ( " mm )
12:57 am 00:57 Clear 55 12.8 49 9.4 80 80 S 12 19 30.02 1017 10 16 0.00 0.00
1:57 am 01:57 Clear 54 12.2 49 9.4 83 83 S 9 15 30.01 1016 10 16 0.00 0.00
2:57 am 02:57 Clear 55 12.8 49 9.4 80 80 SSW 10 17 30.00 1016 10 16 0.00 0.00
3:57 am 03:57 Clear 54 12.2 49 9.4 83 83 SSW 9 15 29.99 1016 10 16 0.00 0.00
4:57 am 04:57 Clear 54 12.2 49 9.4 83 83 S 7 11 29.98 1015 10 16 0.00 0.00
5:57 am 05:57 Clear 52 11.1 49 9.4 89 89 SSW 7 11 29.97 1015 10 16 0.00 0.00
6:57 am 06:57 Clear 50 10 47 8.3 89 89 S 7 11 29.98 1015 10 16 0.00 0.00
7:57 am 07:57 Sunny 50 10 48 8.9 93 93 S 7 11 29.98 1015 10 16 0.00 0.00
8:57 am 08:57 Sunny 57 13.9 51 10.6 81 81 S 12 19 29.98 1015 10 16 0.00 0.00
9:57 am 09:57 Sunny 63 17.2 51 10.6 65 65 S 14 22 29.98 1015 10 16 0.00 0.00
10:57 am 10:57 Sunny 68 20 51 10.6 55 55 S 21 33 29.97 1015 10 16 0.00 0.00
11:57 am 11:57 Sunny 74 23.3 49 9.4 41 41 S 21 33 29.95 1014 10 16 0.00 0.00
12:57 pm 12:57 Sunny 76 24.4 50 10 40 40 S 23 37 29.93 1013 10 16 0.00 0.00
1:57 pm 13:57 Sunny 79 26.1 51 10.6 38 38 S 20 31 29.91 1013 10 16 0.00 0.00
2:57 pm 14:57 Sunny 81 27.2 51 10.6 35 35 S 20 31 29.88 1012 10 16 0.00 0.00
3:57 pm 15:57 Sunny 82 27.8 52 11.1 35 35 S 22 35 29.86 1011 10 16 0.00 0.00
4:57 pm 16:57 Sunny 81 27.2 49 9.4 33 33 S 21 33 29.84 1010 10 16 0.00 0.00
5:57 pm 17:57 Sunny 79 26.1 49 9.4 35 35 S 18 30 29.83 1010 10 16 0.00 0.00
6:57 pm 18:57 Sunny 75 23.9 50 10 41 41 S 16 26 29.85 1011 10 16 0.00 0.00
7:57 pm 19:57 Clear 70 21.1 52 11.1 53 53 S 13 20 29.85 1011 10 16 0.00 0.00
8:57 pm 20:57 Clear 66 18.9 51 10.6 59 59 S 13 20 29.86 1011 10 16 0.00 0.00
9:57 pm 21:57 Clear 64 17.8 52 11.1 65 65 S 14 22 29.86 1011 10 16 0.00 0.00
10:57 pm 22:57 Clear 65 18.3 55 12.8 70 70 S 17 28 29.85 1011 10 16 0.00 0.00
11:57 pm 23:57 Clear 63 17.2 56 13.3 78 78 S 16 26 29.84 1011 10 16 0.00 0.00

Powered by AerisWeather